Location: *
(45.1961°N, 1.9694°E)
Time: 05:11:35
(UTC+00:00)

Cosmos 2219 Rocket - Pass Details

Date: 25 August 2019
Orbit: 830 x 845 km, 71.0° (Epoch: 19 September)

Event Time Altitude Azimuth Distance (km) Brightness Sun altitude
Rises 21:40:09 0° 344° (NNW) 3,387 6.4 -26.5°
Reaches altitude 10° 21:44:13 10° 12° (NNE) 2,447 5.1 -27.0°
Maximum altitude 21:46:37 13° 38° (NE) 2,257 4.6 -27.2°
Enters shadow 21:48:38 11° 60° (ENE) 2,390 4.5 -27.4°
